Flag for Germany Weather past 2 weeks in Niederkassel, North Rhine-Westphalia, Germany

Now
51 °F

Fog.


Feels Like: 51 °F
Forecast: 40 / 62 °F
Wind: 3 mph from West

Location: Bonn-Hangelar

Current Time: Sep 22, 2014 at 5:05:27 AM

Latest Report: Sep 22, 2014 at 4:00 AM


Visibility: 4 mi

Pressure: 30.17 "Hg

Humidity: 94%

Dew point: 49 °F

Location of NiederkasselLocation

Historic Weather in Niederkassel — Graph

°F

Niederkassel temperature yesterday

Maximum temperature yesterday: 60 °F (at 4:00 PM)
Minimum temperature yesterday: 50 °F (at 11:00 PM)
Average temperature yesterday: 58 °F

Past Weeks' High & Low Weather Summary

 TemperatureHumidityPressure
High75 °F (Sep 17, 3:00 PM)99% (Sep 13, 10:00 AM)30.27 "Hg (Sep 13, 10:00 AM)
Low47 °F (Sep 12, 7:00 AM)52% (Sep 10, 3:00 PM)29.80 "Hg (Sep 18, 6:00 PM)
Average61 °F82%30.04 "Hg
* Reported Sep 7 4:00 AM — Sep 22 4:00 AM, Niederkassel, Weather by CustomWeather, © 2014

Note: Actual official high and low records may vary slightly from our data, if they occured in-between our weather recording intervals... More about our weather records

Advertising

Niederkassel weather history for previous 24 hours

 ConditionsComfort  
Time TempWeatherWind HumidityBarometerVisibility
4:00 AM
Sep 22
51 °FFog.3 mph94%30.17 "Hg4 mi
3:00 AM52 °FPassing clouds.1 mph95%30.19 "Hg13 mi
2:00 AM51 °FOvercast.3 mph95%30.18 "Hg3 mi
1:00 AM51 °FPassing clouds.2 mph94%30.17 "Hg3 mi
12:00 AM50 °FFog.5 mph92%30.16 "Hg3 mi
11:00 PM
Sep 21
50 °FFog.3 mph90%30.16 "Hg4 mi
10:00 PM53 °FClear.3 mph84%30.15 "Hg6 mi
9:00 PM55 °FOvercast.5 mph80%30.13 "Hg22 mi
8:00 PM58 °FOvercast.6 mph74%30.10 "Hg31 mi
7:00 PM58 °FPassing clouds.3 mph71%30.09 "Hg31 mi
6:00 PM60 °FPartly sunny.6 mph64%30.07 "Hg28 mi
5:00 PM60 °FPartly sunny.7 mph71%30.06 "Hg25 mi
4:00 PM60 °FPartly sunny.7 mph70%30.06 "Hg19 mi
3:00 PM59 °FPartly sunny.5 mph91%30.06 "Hg16 mi
2:00 PM60 °FOvercast.5 mph82%30.06 "Hg19 mi
1:00 PM59 °FLow clouds.5 mph89%30.05 "Hg9 mi
12:00 PM58 °FRain. Low clouds.7 mph95%30.04 "Hg4 mi
11:00 AM58 °FLight rain. Low clouds.6 mph97%30.03 "Hg4 mi
10:00 AM59 °FRain. Low clouds.5 mph98%30.01 "Hg2 mi
9:00 AM59 °FRain. Low clouds.5 mph98%29.99 "Hg1 mi
8:00 AM59 °FLight rain. Low clouds.1 mph97%29.98 "Hg1 mi
7:00 AM59 °FLow clouds.2 mph97%29.98 "Hg2 mi
6:00 AM59 °FLight rain. Low clouds.3 mph98%29.98 "Hg4 mi
5:00 AM60 °FLight freezing rain. Low clouds.2 mph98%29.98 "Hg1 mi
Weather by CustomWeather, © 2014

See weather overviewHow to use our weather pages